Location: Unspecified
(43.3830°N, 0.0000°E)
Time: 08:44:11
(UTC+00:00)

Explorer 7 - Pass Details

Date: 02 July 2019
Orbit: 485 x 680 km, 50.3° (Epoch: 22 July)

Event Time Altitude Azimuth Distance (km) Brightness Sun altitude
Rises 06:08:39 0° 258° (WSW) 2,636 9.7 16.4°
Reaches altitude 10° 06:10:51 10° 263° (W) 1,778 8.9 16.8°
Maximum altitude 06:14:47 50° 340° (NNW) 714 7.6 17.5°
Drops below altitude 10° 06:19:00 10° 56° (ENE) 1,899 11.2 18.2°
Sets 06:21:25 0° 62° (ENE) 2,838 12.0 18.6°
